Sandakan, Malaysia

4:06 AM +08 on July 24, 2017 (GMT +0800)
Sandakan

Weather History for WBKS - February, 2013

Change the Weather History Date:

Thursday, February 21, 2013

  Actual Average Record
Temperature  
Mean Temperature 84 °F -  
Max Temperature 93 °F 86 °F - ()
Min Temperature 75 °F 74 °F - ()
Cooling Degree Days 19    
Growing Degree Days 34 (Base 50)    
Moisture  
Dew Point 76 °F    
Average Humidity 81    
Maximum Humidity 94    
Minimum Humidity 52    
Precipitation  
Precipitation 0.00 in 0.25 in - ()
Sea Level Pressure  
Sea Level Pressure 29.71 in    
Wind  
Wind Speed 5 mph ()    
Max Wind Speed 10 mph    
Max Gust Speed -    
Visibility 7.1 miles    
Events      
T = Trace of Precipitation, MM = Missing Value Source: Averaged Metar Reports

Daily Weather History Graph

Daily Weather History Graph

Search for Another Location

Airport or City:

Trip Planner

Search our weather history database for the weather conditions in past years. The results will help you decide how hot, cold, wet, or windy it might be!

Date:

Astronomy

Feb. 21, 2013 Rise Set
Actual Time 6:22 AM +08 6:20 PM +08
Civil Twilight 6:01 AM +08 6:41 PM +08
Nautical Twilight 5:36 AM +08 7:05 PM +08
Astronomical Twilight 5:12 AM +08 7:30 PM +08
Moon 2:35 PM +08 (2/21) 2:28 AM +08 (2/21)
Length of Visible Light 12h 40m
Length of Day
11h 57m
Waxing Gibbous, 79% of the Moon is Illuminated
Feb 21
Waxing Gibbous
Feb 26
Full
Mar 5
Last Quarter
Mar 12
New
Mar 20
First Quarter

Hourly Weather History & Observations

Time (+08) Temp. Heat Index Dew Point Humidity Pressure Visibility Wind Dir Wind Speed Gust Speed Precip Events Conditions
1:00 AM 77.0 °F - 75.2 °F 94% 29.71 in 6.2 mi NW 6.9 mph - N/A   Mostly Cloudy
2:00 AM 76 °F - 74 °F 93% 29.72 in 9 mi WNW 4.6 mph - -   Partly Cloudy
2:00 AM 77.0 °F - 75.2 °F 94% 29.71 in 6.2 mi WNW 4.6 mph - N/A   Mostly Cloudy
3:00 AM 77.0 °F - 73.4 °F 89% 29.68 in 6.2 mi West 5.8 mph - N/A   Mostly Cloudy
4:00 AM 75.2 °F - 73.4 °F 94% 29.68 in 6.2 mi WNW 3.5 mph - N/A   Mostly Cloudy
5:00 AM 75 °F - 74 °F 94% 29.69 in 9 mi Calm Calm - -   Partly Cloudy
5:00 AM 75.2 °F - 73.4 °F 94% 29.68 in 6.2 mi Calm Calm - N/A   Mostly Cloudy
6:00 AM 75.2 °F - 73.4 °F 94% 29.68 in 6.2 mi West 1.2 mph - N/A   Mostly Cloudy
7:00 AM 77.0 °F - 75.2 °F 94% 29.71 in 6.2 mi West 3.5 mph - N/A   Mostly Cloudy
8:00 AM 80 °F - 75 °F 81% 29.76 in 7 mi WSW 2.3 mph - -   Haze
8:00 AM 80.6 °F 86.2 °F 75.2 °F 84% 29.74 in 6.2 mi WSW 2.3 mph - N/A   Mostly Cloudy
9:00 AM 84.2 °F 90.9 °F 73.4 °F 70% 29.77 in 6.2 mi WSW 8.1 mph - N/A   Mostly Cloudy
10:00 AM 86.0 °F 95.1 °F 75.2 °F 70% 29.77 in 6.2 mi WSW 6.9 mph - N/A   Mostly Cloudy
11:00 AM 88 °F - 76 °F 59% 29.75 in 11 mi WSW 5.8 mph - -   Haze
11:00 AM 87.8 °F 97.6 °F 75.2 °F 66% 29.74 in 6.2 mi WSW 5.8 mph - N/A   Mostly Cloudy
1:00 PM 91.4 °F 100.1 °F 73.4 °F 55% 29.68 in 6.2 mi WSW 4.6 mph - N/A   Mostly Cloudy
2:00 PM 92 °F - 76 °F 52% 29.66 in 11 mi West 4.6 mph - -   Haze
2:00 PM 93.2 °F 107.2 °F 77.0 °F 59% 29.65 in 6.2 mi West 4.6 mph - N/A   Mostly Cloudy
3:00 PM 87.8 °F 102.5 °F 78.8 °F 75% 29.62 in 6.2 mi NE 6.9 mph - N/A   Mostly Cloudy
4:00 PM 86.0 °F 99.3 °F 78.8 °F 79% 29.62 in 6.2 mi NE 9.2 mph - N/A   Mostly Cloudy
5:00 PM 85 °F - 77 °F 72% 29.68 in 11 mi East 10.4 mph - -   Haze
5:00 PM 84.2 °F 94.1 °F 77.0 °F 79% 29.68 in 6.2 mi East 10.4 mph - N/A   Mostly Cloudy
6:00 PM 82.4 °F 90.9 °F 77.0 °F 84% 29.68 in 6.2 mi East 9.2 mph - N/A   Mostly Cloudy
7:00 PM 82.4 °F 90.9 °F 77.0 °F 84% 29.71 in 6.2 mi ENE 9.2 mph - N/A   Mostly Cloudy
8:00 PM 82 °F - 78 °F 84% 29.75 in 9 mi ENE 8.1 mph - -   Partly Cloudy
8:00 PM 82.4 °F 92.4 °F 78.8 °F 89% 29.74 in 6.2 mi ENE 8.1 mph - N/A   Mostly Cloudy
9:00 PM 82.4 °F 92.4 °F 78.8 °F 89% 29.77 in 6.2 mi ENE 8.1 mph - N/A   Mostly Cloudy
10:00 PM 82.4 °F 90.9 °F 77.0 °F 84% 29.77 in 6.2 mi NE 9.2 mph - N/A   Mostly Cloudy
11:00 PM 82 °F - 77 °F 80% 29.78 in 9 mi NE 8.1 mph - -   Scattered Clouds